[[{"header":{"parameterUnit":"m.s-1","parameterCategory":2,"la1":30.2991,"la2":30.254,"lo1":-89.0895,"lo2":-89.0444,"dy":0.0017,"dx":0.0017,"nx":28,"ny":28,"refTime":"2025-11-09T03:00:00:Z","depth":"0","parameterNumber":2,"parameterNumberName":"U-component_of_CURRENTS"},"data":[0,0,0,0,0,0,0,0,0,0,0,0,0,0,0,0,0,0,0,0,0,0,0,0,0,0,0,0,0,0,0,0,0,0,0,0,0,0,0,0,0,0,0,0,0,0,0,0,0,0,0,0,0,0,0,0,0,0,-0.2815,-0.2815,0,-0.2848,-0.2848,-0.2848,-0.2828,-0.2827,-0.2827,-0.2826,-0.2863,-0.2865,-0.2867,0,0,0,0,0,0,0,0,0,0,0,0,0,-0.2778,-0.2778,-0.2815,-0.2815,-0.2816,-0.2848,-0.2848,-0.2848,-0.2828,-0.2827,-0.2826,-0.2825,-0.2863,-0.2865,-0.2867,0,0,0,0,0,0,0,0,0,0,0,0,0,-0.2799,-0.2778,-0.2815,-0.2811,-0.2811,-0.2847,-0.2848,-0.2848,-0.2829,-0.2827,-0.2826,-0.2825,-0.2862,-0.2865,-0.2867,-0.2909,0,0,-0.2876,-0.2877,0,0,0,0,0,0,0,0,-0.2798,-0.28,-0.2811,-0.2811,-0.2811,-0.2834,-0.2849,-0.2869,-0.2829,-0.282,-0.2826,-0.2824,-0.2856,-0.2859,-0.2866,-0.291,-0.2912,-0.2876,-0.2877,-0.2879,-0.2879,0,0,0,0,0,0,0,-0.2796,-0.2799,-0.2826,-0.2811,-0.2812,-0.2822,-0.2823,-0.2853,-0.2844,-0.2821,-0.282,-0.2826,-0.2855,-0.2863,-0.2867,-0.2913,-0.2876,-0.2878,-0.288,-0.2881,-0.2978,-0.2979,0,0,0,0,0,0,-0.2794,-0.2797,-0.2825,-0.2827,-0.2803,-0.2824,-0.2825,-0.2827,-0.2843,-0.2845,-0.2827,-0.2825,-0.2859,-0.2864,-0.2868,-0.2898,-0.2878,-0.2881,-0.2883,-0.2977,-0.2978,-0.298,0,0,0,0,0,0,-0.2793,-0.2796,-0.2824,-0.2814,-0.2819,-0.2825,-0.2828,-0.2828,-0.2831,-0.2848,-0.2849,-0.2829,-0.2859,-0.2864,-0.289,-0.29,-0.2882,-0.2885,-0.2976,-0.2978,-0.2979,-0.2971,0,0,0,0,0,0,-0.2792,-0.2795,-0.2794,-0.2814,-0.2819,-0.2844,-0.2829,-0.283,-0.2838,-0.2835,-0.2851,-0.2853,-0.2858,-0.2886,-0.2893,-0.2903,-0.2887,-0.2975,-0.2977,-0.2979,-0.297,-0.2972,-0.2974,0,0,0,0,0,-0.279,-0.2795,-0.2794,-0.2798,-0.2818,-0.2845,-0.2848,-0.2848,-0.2839,-0.2845,-0.2853,-0.2852,-0.2902,-0.2889,-0.2897,-0.2908,-0.2974,-0.2976,-0.2978,-0.2969,-0.2972,-0.2974,0,0,0,0,0,0,-0.2781,-0.2795,-0.2793,-0.2802,-0.2821,-0.2842,-0.2848,-0.2851,-0.2864,-0.2858,-0.2868,-0.2871,-0.2898,-0.291,-0.2895,-0.2943,-0.2938,-0.2942,-0.2929,-0.2931,-0.2933,-0.2923,-0.2889,0,0,0,0,0,-0.278,-0.2781,-0.2803,-0.281,-0.2819,-0.2834,-0.2844,-0.2848,-0.2863,-0.2866,-0.2877,-0.2894,-0.2917,-0.2927,-0.295,-0.298,-0.2974,-0.2993,-0.2995,-0.2996,-0.2995,-0.3006,-0.3008,-0.2987,-0.2987,-0.2987,0,0,-0.2777,-0.2785,-0.2786,-0.2807,-0.2819,-0.2838,-0.2836,-0.2853,-0.2866,-0.2871,-0.2887,-0.2903,-0.2928,-0.2954,-0.2968,-0.2963,-0.2996,-0.2999,-0.3,-0.2997,-0.3009,-0.301,-0.3012,-0.2988,-0.2988,-0.2988,0,0,-0.2777,-0.2782,-0.2785,-0.2803,-0.2825,-0.284,-0.2846,-0.2868,-0.2872,-0.2898,-0.2903,-0.2922,-0.2958,-0.2972,-0.2986,-0.3016,-0.3007,-0.3028,-0.3027,-0.3038,-0.3039,-0.3041,-0.3014,-0.3013,-0.3026,-0.3026,-0.3026,0,-0.2775,-0.2778,-0.2793,-0.2806,-0.282,-0.2841,-0.2855,-0.2872,-0.2899,-0.2908,-0.29,-0.295,-0.2965,-0.3,-0.3004,-0.3019,-0.3012,-0.3012,-0.3038,-0.304,-0.3041,-0.3013,-0.3012,-0.3026,-0.3026,-0.3026,-0.3026,0,-0.2777,-0.2785,-0.2792,-0.2811,-0.2832,-0.2848,-0.2877,-0.2895,-0.2903,-0.2918,-0.2948,-0.2968,-0.2993,-0.3005,-0.3012,-0.3036,-0.3022,-0.3038,-0.3026,-0.3042,-0.3012,-0.3011,-0.3026,-0.3026,-0.3026,-0.3026,0,0,-0.2757,-0.2785,-0.2786,-0.2793,-0.2833,-0.2848,-0.288,-0.2911,-0.2924,-0.2948,-0.2963,-0.2999,-0.3004,-0.302,-0.3034,-0.3042,-0.3034,-0.304,-0.3041,-0.3001,-0.3029,-0.2986,-0.298,-0.3055,-0.3055,-0.3056,-0.2996,0,-0.2751,-0.2765,-0.2788,-0.2807,-0.2817,-0.2854,-0.2881,-0.2914,-0.2937,-0.2959,-0.2983,-0.3004,-0.3014,-0.302,-0.3033,-0.3042,-0.3035,-0.3046,-0.3031,-0.303,-0.298,-0.2979,-0.2938,-0.2879,-0.2994,-0.2994,-0.2994,0,-0.2739,-0.2749,-0.2761,-0.2795,-0.2804,-0.2822,-0.2862,-0.289,-0.2937,-0.2957,-0.2986,-0.3005,-0.3026,-0.3027,-0.3038,-0.3046,-0.3033,-0.3031,-0.303,-0.2992,-0.2985,-0.2888,-0.2872,-0.2787,-0.2992,-0.2992,-0.2993,0,-0.2697,-0.2729,-0.2731,-0.2744,-0.2791,-0.2802,-0.2827,-0.2878,-0.2903,-0.2947,-0.2967,-0.3,-0.301,-0.3018,-0.3015,-0.3027,-0.3011,-0.3029,-0.2971,-0.2966,-0.2929,-0.2921,-0.282,-0.3024,-0.3025,-0.3025,-0.3025,0,-0.2672,-0.2674,-0.2707,-0.2706,-0.2714,-0.2762,-0.278,-0.2818,-0.2871,-0.2898,-0.2952,-0.2976,-0.3011,-0.3013,-0.3007,-0.2977,-0.3004,-0.2961,-0.2954,-0.2923,-0.2916,-0.284,-0.2811,-0.3022,-0.3023,-0.3023,-0.3024,0,-0.2613,-0.2642,-0.2642,-0.2679,-0.269,-0.2688,-0.2742,-0.2755,-0.2822,-0.2858,-0.2871,-0.2948,-0.2958,-0.297,-0.2972,-0.2956,-0.2858,-0.2915,-0.2855,-0.2842,-0.2713,-0.2687,-0.2523,-0.2447,-0.284,-0.2839,-0.2837,0,-0.2578,-0.2569,-0.2597,-0.2595,-0.2604,-0.262,-0.263,-0.2709,-0.2732,-0.2838,-0.2844,-0.2887,-0.2919,-0.2901,-0.29,-0.2869,-0.2783,-0.2769,-0.2792,-0.2686,-0.2652,-0.258,-0.2522,-0.2728,-0.2726,-0.2724,-0.2723,0,-0.2498,-0.2509,-0.2509,-0.2499,-0.2503,-0.2517,-0.2542,-0.2565,-0.2662,-0.2718,-0.2786,-0.2828,-0.2868,-0.2849,-0.2813,-0.2782,-0.2656,-0.2734,-0.2653,-0.2572,-0.2459,-0.2389,-0.2761,-0.2709,-0.271,-0.2711,-0.2712,-0.2712,-0.2424,-0.2403,-0.2398,-0.2381,-0.2388,-0.2387,-0.2369,-0.2439,-0.2483,-0.256,-0.267,-0.2725,-0.2767,-0.275,-0.2698,-0.2567,-0.2569,-0.249,-0.2468,-0.2404,-0.2322,-0.2639,-0.2568,-0.2569,-0.2569,-0.257,-0.257,0,-0.231,-0.2296,-0.2277,-0.2253,-0.2212,-0.2258,-0.2279,-0.2258,-0.2285,-0.2433,-0.2505,-0.2599,-0.256,-0.2551,-0.2468,-0.2331,-0.226,-0.2223,-0.2126,-0.2085,-0.2396,-0.2386,-0.2237,-0.2237,-0.2237,-0.2237,-0.2238,-0.2238,-0.2251,-0.2182,-0.2169,-0.2065,-0.2053,-0.1969,-0.1959,-0.1977,-0.2049,-0.2173,-0.2289,-0.2441,-0.2526,-0.2408,-0.2191,-0.209,-0.1923,-0.1871,-0.1814,-0.2063,-0.2086,-0.2109,-0.2091,-0.1883,-0.1882,-0.1469,-0.1465,-0.1463]},{"header":{"parameterUnit":"m.s-1","parameterCategory":2,"la1":30.2991,"la2":30.254,"lo1":-89.0895,"lo2":-89.0444,"dy":0.0017,"dx":0.0017,"nx":28,"ny":28,"refTime":"2025-11-09T03:00:00:Z","depth":"0","parameterNumber":3,"parameterNumberName":"V-component_of_CURRENTS"},"data":[0,0,0,0,0,0,0,0,0,0,0,0,0,0,0,0,0,0,0,0,0,0,0,0,0,0,0,0,0,0,0,0,0,0,0,0,0,0,0,0,0,0,0,0,0,0,0,0,0,0,0,0,0,0,0,0,0,0,-0.0662,-0.0661,0,-0.0615,-0.0614,-0.0613,-0.0566,-0.0565,-0.0564,-0.0564,-0.0463,-0.0461,-0.0459,0,0,0,0,0,0,0,0,0,0,0,0,0,-0.0685,-0.0685,-0.0662,-0.0661,-0.0661,-0.0615,-0.0614,-0.0613,-0.0566,-0.0565,-0.0564,-0.0564,-0.0464,-0.0461,-0.0459,0,0,0,0,0,0,0,0,0,0,0,0,0,-0.0659,-0.0685,-0.0662,-0.0632,-0.0629,-0.0615,-0.0614,-0.0613,-0.0566,-0.0565,-0.0564,-0.0563,-0.0465,-0.0462,-0.0458,-0.0454,0,0,-0.0448,-0.0447,0,0,0,0,0,0,0,0,-0.0661,-0.0658,-0.0637,-0.0634,-0.0631,-0.0596,-0.0586,-0.0558,-0.0566,-0.0589,-0.0564,-0.0563,-0.0504,-0.0498,-0.049,-0.045,-0.0445,-0.0448,-0.0446,-0.0445,-0.0444,0,0,0,0,0,0,0,-0.0663,-0.066,-0.0642,-0.0637,-0.0633,-0.0613,-0.0609,-0.058,-0.0549,-0.0587,-0.0583,-0.058,-0.0502,-0.0493,-0.0487,-0.0444,-0.0448,-0.0445,-0.0443,-0.0442,-0.0397,-0.0398,0,0,0,0,0,0,-0.0673,-0.0662,-0.0643,-0.0641,-0.0646,-0.0614,-0.0608,-0.0607,-0.0551,-0.0542,-0.0581,-0.0578,-0.0499,-0.0491,-0.0483,-0.048,-0.0445,-0.0442,-0.044,-0.0397,-0.0398,-0.0398,0,0,0,0,0,0,-0.0674,-0.0672,-0.0645,-0.0651,-0.0646,-0.0614,-0.0613,-0.0607,-0.0596,-0.0548,-0.0537,-0.0577,-0.0498,-0.0487,-0.0465,-0.0475,-0.044,-0.0437,-0.0396,-0.0397,-0.0398,-0.047,0,0,0,0,0,0,-0.0675,-0.0673,-0.0676,-0.0652,-0.0646,-0.0643,-0.0614,-0.0606,-0.0596,-0.0592,-0.0541,-0.0531,-0.0496,-0.0471,-0.0462,-0.047,-0.0435,-0.0395,-0.0396,-0.0398,-0.0467,-0.0474,-0.048,0,0,0,0,0,-0.0676,-0.0685,-0.0676,-0.0674,-0.0652,-0.0644,-0.064,-0.0613,-0.0597,-0.0599,-0.0567,-0.0532,-0.0474,-0.0469,-0.0459,-0.0466,-0.0394,-0.0396,-0.0398,-0.0464,-0.0472,-0.0479,0,0,0,0,0,0,-0.0696,-0.0681,-0.067,-0.0674,-0.0663,-0.0636,-0.0635,-0.0619,-0.0595,-0.0589,-0.0541,-0.053,-0.0514,-0.0483,-0.0479,-0.0458,-0.0428,-0.0428,-0.0483,-0.049,-0.0496,-0.0495,-0.0432,0,0,0,0,0,-0.0704,-0.0706,-0.0689,-0.0692,-0.0689,-0.0664,-0.0657,-0.0641,-0.0618,-0.0607,-0.0573,-0.0539,-0.0515,-0.0497,-0.047,-0.0458,-0.0423,-0.0457,-0.0463,-0.0469,-0.0461,-0.0425,-0.0427,-0.0404,-0.0404,-0.0404,0,0,-0.0712,-0.0705,-0.0705,-0.0696,-0.0684,-0.069,-0.0657,-0.0653,-0.0655,-0.06,-0.059,-0.0559,-0.0517,-0.0506,-0.0496,-0.048,-0.0461,-0.0471,-0.0476,-0.0465,-0.0427,-0.0429,-0.0431,-0.0405,-0.0405,-0.0405,0,0,-0.0736,-0.0725,-0.0737,-0.0733,-0.0724,-0.071,-0.0713,-0.0691,-0.0677,-0.0668,-0.0631,-0.0607,-0.0569,-0.0542,-0.0524,-0.0548,-0.0497,-0.0542,-0.0569,-0.0535,-0.0536,-0.0537,-0.0512,-0.0509,-0.0544,-0.0544,-0.0544,0,-0.0749,-0.0761,-0.074,-0.0754,-0.0756,-0.0724,-0.0742,-0.0727,-0.0701,-0.069,-0.0674,-0.0619,-0.0585,-0.0566,-0.0576,-0.0561,-0.0535,-0.0545,-0.0543,-0.0542,-0.0542,-0.0516,-0.0512,-0.0548,-0.0547,-0.0547,-0.0546,0,-0.0783,-0.0794,-0.0802,-0.0809,-0.0809,-0.0819,-0.08,-0.0793,-0.0772,-0.075,-0.0726,-0.0681,-0.0645,-0.0637,-0.0611,-0.0595,-0.0578,-0.0557,-0.0523,-0.0548,-0.052,-0.0515,-0.0553,-0.0552,-0.055,-0.055,0,0,-0.0811,-0.0825,-0.0828,-0.0844,-0.0841,-0.0847,-0.0849,-0.0841,-0.0838,-0.0803,-0.0792,-0.0752,-0.0717,-0.0693,-0.0658,-0.0627,-0.0608,-0.0594,-0.059,-0.0569,-0.0537,-0.0525,-0.0518,-0.0587,-0.0586,-0.0585,-0.0525,0,-0.0847,-0.0888,-0.0881,-0.0919,-0.0941,-0.0917,-0.0924,-0.0909,-0.0881,-0.0859,-0.0804,-0.0779,-0.0742,-0.0726,-0.069,-0.0625,-0.0596,-0.0626,-0.0515,-0.0511,-0.0497,-0.0512,-0.0588,-0.054,-0.052,-0.0519,-0.0518,0,-0.0887,-0.091,-0.0956,-0.098,-0.0986,-0.1001,-0.1001,-0.1,-0.0956,-0.0932,-0.0888,-0.0838,-0.0787,-0.0751,-0.0652,-0.0674,-0.0611,-0.056,-0.0556,-0.0511,-0.0489,-0.0508,-0.0531,-0.0529,-0.051,-0.0511,-0.0511,0,-0.0927,-0.0962,-0.1002,-0.1012,-0.1031,-0.1043,-0.1045,-0.102,-0.1022,-0.0971,-0.0958,-0.0884,-0.0844,-0.0758,-0.0649,-0.0651,-0.0533,-0.0522,-0.0453,-0.0452,-0.0475,-0.0477,-0.0481,-0.045,-0.045,-0.045,-0.0451,0,-0.0974,-0.1005,-0.1024,-0.1049,-0.1094,-0.1085,-0.1113,-0.11,-0.1077,-0.1081,-0.0996,-0.0975,-0.0841,-0.0755,-0.0661,-0.054,-0.0541,-0.0455,-0.0432,-0.0505,-0.051,-0.0474,-0.0468,-0.0448,-0.0449,-0.0449,-0.0449,0,-0.1016,-0.1027,-0.1078,-0.1107,-0.1118,-0.1149,-0.1171,-0.1187,-0.1152,-0.1152,-0.1138,-0.1039,-0.0926,-0.0789,-0.0641,-0.0559,-0.0438,-0.04,-0.0496,-0.0486,-0.0428,-0.0423,-0.0307,-0.0318,-0.0325,-0.0325,-0.0324,0,-0.1041,-0.107,-0.1124,-0.116,-0.1177,-0.1215,-0.1244,-0.1231,-0.1245,-0.1195,-0.1201,-0.1085,-0.1021,-0.0792,-0.0624,-0.0457,-0.0414,-0.0412,-0.0425,-0.0434,-0.0411,-0.0352,-0.0367,-0.0493,-0.0494,-0.0495,-0.0496,0,-0.1088,-0.1105,-0.1149,-0.1222,-0.1268,-0.1318,-0.1351,-0.1377,-0.1357,-0.1355,-0.1325,-0.1267,-0.1039,-0.0898,-0.0654,-0.0537,-0.0435,-0.0419,-0.0408,-0.0523,-0.0479,-0.0478,-0.0527,-0.0502,-0.0501,-0.0501,-0.05,-0.05,-0.1117,-0.1162,-0.1217,-0.1286,-0.1347,-0.1413,-0.146,-0.1496,-0.1533,-0.1552,-0.1458,-0.1414,-0.1176,-0.0851,-0.0703,-0.05,-0.045,-0.0472,-0.0459,-0.0391,-0.0421,-0.0479,-0.0437,-0.0436,-0.0435,-0.0435,-0.0434,0,-0.1146,-0.1201,-0.1275,-0.1366,-0.1446,-0.1455,-0.1528,-0.1576,-0.1643,-0.1671,-0.1656,-0.1507,-0.1284,-0.1014,-0.0693,-0.0578,-0.0524,-0.0523,-0.0497,-0.0507,-0.0558,-0.0589,-0.0605,-0.0605,-0.0605,-0.0605,-0.0605,-0.0605,-0.1164,-0.124,-0.1284,-0.1425,-0.1493,-0.1594,-0.164,-0.1711,-0.1751,-0.1823,-0.1806,-0.1764,-0.1432,-0.0928,-0.0649,-0.0592,-0.0547,-0.0517,-0.046,-0.0558,-0.0553,-0.0549,-0.0578,-0.0591,-0.0591,-0.0446,-0.0446,-0.0445]}],[{"header":{"parameterUnit":"m.s-1","parameterCategory":2,"la1":30.2991,"la2":30.254,"lo1":-89.0895,"lo2":-89.0444,"dy":0.0017,"dx":0.0017,"nx":28,"ny":28,"refTime":"2025-11-09T03:00:00:Z","depth":"2","parameterNumber":2,"parameterNumberName":"U-component_of_CURRENTS"},"data":[0,0,0,0,0,0,0,0,0,0,0,0,0,0,0,0,0,0,0,0,0,0,0,0,0,0,0,0,0,0,0,0,0,0,0,0,0,0,0,0,0,0,0,0,0,0,0,0,0,0,0,0,0,0,0,0,0,0,-0.281,-0.2811,0,-0.2843,-0.2843,-0.2844,-0.2824,-0.2823,-0.2823,-0.2822,-0.286,-0.2861,-0.2863,0,0,0,0,0,0,0,0,0,0,0,0,0,-0.2773,-0.2773,-0.281,-0.2811,-0.2811,-0.2843,-0.2843,-0.2844,-0.2824,-0.2823,-0.2822,-0.2821,-0.2859,-0.2861,-0.2863,0,0,0,0,0,0,0,0,0,0,0,0,0,-0.2794,-0.2773,-0.281,-0.2806,-0.2806,-0.2843,-0.2843,-0.2844,-0.2825,-0.2823,-0.2822,-0.2821,-0.2858,-0.2861,-0.2863,-0.2904,0,0,-0.2872,-0.2873,0,0,0,0,0,0,0,0,-0.2793,-0.2795,-0.2806,-0.2807,-0.2807,-0.2829,-0.2844,-0.2865,-0.2825,-0.2816,-0.2822,-0.282,-0.2852,-0.2855,-0.2862,-0.2906,-0.2908,-0.2872,-0.2873,-0.2875,-0.2875,0,0,0,0,0,0,0,-0.2792,-0.2794,-0.2822,-0.2807,-0.2807,-0.2818,-0.2819,-0.2848,-0.284,-0.2817,-0.2816,-0.2822,-0.2851,-0.2859,-0.2863,-0.2908,-0.2872,-0.2874,-0.2876,-0.2877,-0.2974,-0.2975,0,0,0,0,0,0,-0.2789,-0.2793,-0.2821,-0.2823,-0.2798,-0.2819,-0.2821,-0.2822,-0.2839,-0.2841,-0.2823,-0.2821,-0.2855,-0.2859,-0.2864,-0.2894,-0.2874,-0.2877,-0.2878,-0.2973,-0.2974,-0.2975,0,0,0,0,0,0,-0.2788,-0.2791,-0.2819,-0.281,-0.2814,-0.2821,-0.2823,-0.2824,-0.2827,-0.2844,-0.2845,-0.2825,-0.2855,-0.286,-0.2886,-0.2896,-0.2878,-0.2881,-0.2972,-0.2973,-0.2975,-0.2967,0,0,0,0,0,0,-0.2787,-0.2791,-0.279,-0.281,-0.2815,-0.284,-0.2825,-0.2825,-0.2834,-0.2831,-0.2847,-0.2849,-0.2854,-0.2882,-0.2889,-0.2899,-0.2883,-0.2971,-0.2973,-0.2974,-0.2966,-0.2968,-0.297,0,0,0,0,0,-0.2786,-0.2791,-0.279,-0.2793,-0.2813,-0.284,-0.2844,-0.2844,-0.2835,-0.2841,-0.2849,-0.2848,-0.2898,-0.2885,-0.2893,-0.2904,-0.297,-0.2972,-0.2974,-0.2965,-0.2968,-0.297,0,0,0,0,0,0,-0.2777,-0.279,-0.2789,-0.2798,-0.2817,-0.2837,-0.2843,-0.2847,-0.2859,-0.2854,-0.2864,-0.2868,-0.2894,-0.2907,-0.2891,-0.2939,-0.2934,-0.2938,-0.2925,-0.2927,-0.2929,-0.2919,-0.2885,0,0,0,0,0,-0.2775,-0.2777,-0.2799,-0.2805,-0.2815,-0.283,-0.284,-0.2843,-0.2859,-0.2862,-0.2873,-0.289,-0.2913,-0.2923,-0.2946,-0.2976,-0.297,-0.2989,-0.2991,-0.2992,-0.2991,-0.3002,-0.3004,-0.2983,-0.2983,-0.2983,0,0,-0.2773,-0.2781,-0.2782,-0.2803,-0.2815,-0.2834,-0.2832,-0.2849,-0.2862,-0.2867,-0.2884,-0.29,-0.2924,-0.295,-0.2964,-0.2959,-0.2992,-0.2995,-0.2996,-0.2993,-0.3005,-0.3006,-0.3008,-0.2984,-0.2984,-0.2984,0,0,-0.2773,-0.2778,-0.2781,-0.2799,-0.2821,-0.2836,-0.2842,-0.2865,-0.2869,-0.2894,-0.2899,-0.2918,-0.2955,-0.2968,-0.2982,-0.3013,-0.3003,-0.3024,-0.3023,-0.3035,-0.3036,-0.3037,-0.301,-0.3009,-0.3023,-0.3023,-0.3023,0,-0.2771,-0.2774,-0.2788,-0.2802,-0.2816,-0.2837,-0.2851,-0.2868,-0.2895,-0.2904,-0.2897,-0.2947,-0.2962,-0.2996,-0.3,-0.3015,-0.3008,-0.3008,-0.3035,-0.3036,-0.3037,-0.301,-0.3009,-0.3023,-0.3023,-0.3023,-0.3023,0,-0.2773,-0.2781,-0.2788,-0.2807,-0.2828,-0.2844,-0.2873,-0.2891,-0.29,-0.2915,-0.2945,-0.2964,-0.299,-0.3002,-0.3008,-0.3033,-0.3019,-0.3035,-0.3022,-0.3039,-0.3009,-0.3008,-0.3022,-0.3022,-0.3022,-0.3022,0,0,-0.2753,-0.2782,-0.2783,-0.2789,-0.2829,-0.2844,-0.2876,-0.2907,-0.2921,-0.2945,-0.296,-0.2996,-0.3001,-0.3017,-0.3031,-0.3038,-0.3031,-0.3037,-0.3038,-0.2998,-0.3026,-0.2982,-0.2976,-0.3052,-0.3052,-0.3052,-0.2993,0,-0.2747,-0.2761,-0.2784,-0.2804,-0.2813,-0.285,-0.2878,-0.2911,-0.2934,-0.2956,-0.298,-0.3001,-0.301,-0.3017,-0.3029,-0.3039,-0.3032,-0.3043,-0.3028,-0.3027,-0.2976,-0.2976,-0.2724,-0.2648,-0.2992,-0.2992,-0.2991,0,-0.2735,-0.2746,-0.2757,-0.2791,-0.28,-0.2818,-0.2859,-0.2886,-0.2933,-0.2953,-0.2983,-0.3002,-0.3023,-0.3024,-0.3035,-0.3043,-0.303,-0.3029,-0.3027,-0.2989,-0.2982,-0.2695,-0.2633,-0.2989,-0.299,-0.299,-0.299,0,-0.2693,-0.2726,-0.2728,-0.274,-0.2787,-0.2798,-0.2824,-0.2875,-0.2899,-0.2944,-0.2963,-0.2997,-0.3007,-0.3015,-0.3013,-0.3024,-0.3009,-0.3026,-0.2968,-0.2963,-0.2748,-0.2724,-0.3022,-0.3022,-0.3022,-0.3022,-0.3022,0,-0.2669,-0.267,-0.2703,-0.2703,-0.2711,-0.2759,-0.2777,-0.2815,-0.2868,-0.2894,-0.2948,-0.2972,-0.3008,-0.301,-0.3005,-0.2974,-0.3001,-0.2958,-0.2951,-0.2737,-0.2715,-0.302,-0.302,-0.302,-0.302,-0.3021,-0.3021,0,-0.261,-0.2638,-0.2639,-0.2676,-0.2687,-0.2686,-0.2739,-0.2752,-0.2819,-0.2854,-0.2868,-0.2944,-0.2954,-0.2967,-0.2969,-0.2953,-0.2934,-0.2912,-0.2643,-0.2606,-0.2877,-0.2878,-0.2841,-0.2839,-0.2837,-0.2836,-0.2834,0,-0.2575,-0.2567,-0.2595,-0.2592,-0.2601,-0.2617,-0.2628,-0.2706,-0.2729,-0.2835,-0.284,-0.2883,-0.2901,-0.2884,-0.2821,-0.2772,-0.2879,-0.2548,-0.2542,-0.2865,-0.2861,-0.2865,-0.2868,-0.2231,-0.2225,-0.222,-0.2216,0,-0.2496,-0.2506,-0.2506,-0.2497,-0.2501,-0.2515,-0.2539,-0.2562,-0.2658,-0.2699,-0.2766,-0.2795,-0.2779,-0.2621,-0.2561,-0.2515,-0.2541,-0.2452,-0.2835,-0.2344,-0.2293,-0.229,-0.2311,-0.2172,-0.2177,-0.218,-0.2182,-0.2184,-0.2422,-0.2401,-0.2397,-0.238,-0.2386,-0.2384,-0.2366,-0.2385,-0.2408,-0.2397,-0.2555,-0.2484,-0.2495,-0.2267,-0.218,-0.2103,-0.2304,-0.2212,-0.2225,-0.2244,-0.2213,-0.2165,-0.201,-0.2013,-0.2016,-0.2019,-0.2021,0,-0.2297,-0.2294,-0.2275,-0.2251,-0.2194,-0.2257,-0.2276,-0.2196,-0.2139,-0.2145,-0.2132,-0.1948,-0.1828,-0.1852,-0.166,-0.1674,-0.1631,-0.1625,-0.1544,-0.1589,-0.1629,-0.1565,-0.1191,-0.1189,-0.1187,-0.1184,0,0,-0.2234,-0.2161,-0.2147,-0.2034,-0.2032,-0.1919,-0.1908,-0.1807,-0.1752,-0.1631,-0.1566,-0.162,-0.1758,-0.142,-0.139,-0.1256,-0.1402,-0.1197,-0.186,-0.1806,-0.1842,-0.1966,-0.1919,0,0,0,0,0]},{"header":{"parameterUnit":"m.s-1","parameterCategory":2,"la1":30.2991,"la2":30.254,"lo1":-89.0895,"lo2":-89.0444,"dy":0.0017,"dx":0.0017,"nx":28,"ny":28,"refTime":"2025-11-09T03:00:00:Z","depth":"2","parameterNumber":3,"parameterNumberName":"V-component_of_CURRENTS"},"data":[0,0,0,0,0,0,0,0,0,0,0,0,0,0,0,0,0,0,0,0,0,0,0,0,0,0,0,0,0,0,0,0,0,0,0,0,0,0,0,0,0,0,0,0,0,0,0,0,0,0,0,0,0,0,0,0,0,0,-0.0616,-0.0615,0,-0.0569,-0.0568,-0.0568,-0.0521,-0.052,-0.052,-0.0519,-0.0419,-0.0417,-0.0415,0,0,0,0,0,0,0,0,0,0,0,0,0,-0.064,-0.0639,-0.0616,-0.0615,-0.0615,-0.0569,-0.0568,-0.0567,-0.0521,-0.052,-0.052,-0.0519,-0.042,-0.0417,-0.0415,0,0,0,0,0,0,0,0,0,0,0,0,0,-0.0614,-0.0639,-0.0616,-0.0587,-0.0584,-0.0569,-0.0568,-0.0567,-0.0521,-0.052,-0.0519,-0.0519,-0.0421,-0.0418,-0.0414,-0.0409,0,0,-0.0404,-0.0403,0,0,0,0,0,0,0,0,-0.0615,-0.0613,-0.0592,-0.0589,-0.0586,-0.0551,-0.054,-0.0512,-0.0521,-0.0544,-0.0519,-0.0518,-0.046,-0.0453,-0.0445,-0.0405,-0.04,-0.0404,-0.0402,-0.0401,-0.04,0,0,0,0,0,0,0,-0.0617,-0.0614,-0.0596,-0.0591,-0.0588,-0.0568,-0.0563,-0.0535,-0.0505,-0.0542,-0.0538,-0.0535,-0.0457,-0.0448,-0.0442,-0.0399,-0.0404,-0.0401,-0.0399,-0.0398,-0.0353,-0.0354,0,0,0,0,0,0,-0.0628,-0.0616,-0.0597,-0.0595,-0.06,-0.0568,-0.0563,-0.0562,-0.0506,-0.0497,-0.0536,-0.0533,-0.0454,-0.0446,-0.0438,-0.0436,-0.0401,-0.0398,-0.0396,-0.0352,-0.0353,-0.0354,0,0,0,0,0,0,-0.0628,-0.0626,-0.0599,-0.0605,-0.06,-0.0569,-0.0568,-0.0561,-0.0551,-0.0503,-0.0493,-0.0533,-0.0453,-0.0443,-0.0421,-0.0431,-0.0396,-0.0393,-0.0351,-0.0352,-0.0354,-0.0426,0,0,0,0,0,0,-0.0629,-0.0627,-0.063,-0.0606,-0.0601,-0.0597,-0.0568,-0.0561,-0.0551,-0.0547,-0.0496,-0.0486,-0.0452,-0.0427,-0.0418,-0.0426,-0.0391,-0.035,-0.0352,-0.0353,-0.0423,-0.043,-0.0435,0,0,0,0,0,-0.063,-0.064,-0.0631,-0.0628,-0.0606,-0.0598,-0.0594,-0.0567,-0.0552,-0.0554,-0.0522,-0.0488,-0.0429,-0.0425,-0.0414,-0.0422,-0.035,-0.0351,-0.0353,-0.042,-0.0428,-0.0435,0,0,0,0,0,0,-0.0651,-0.0635,-0.0625,-0.0628,-0.0618,-0.0591,-0.059,-0.0573,-0.055,-0.0545,-0.0497,-0.0485,-0.047,-0.0439,-0.0435,-0.0414,-0.0384,-0.0384,-0.0438,-0.0446,-0.0452,-0.0451,-0.0388,0,0,0,0,0,-0.0659,-0.066,-0.0643,-0.0646,-0.0643,-0.0618,-0.0611,-0.0596,-0.0573,-0.0562,-0.0528,-0.0494,-0.047,-0.0453,-0.0425,-0.0414,-0.0379,-0.0412,-0.0419,-0.0424,-0.0417,-0.0381,-0.0384,-0.036,-0.036,-0.036,0,0,-0.0667,-0.0659,-0.0659,-0.0651,-0.0638,-0.0644,-0.0612,-0.0608,-0.061,-0.0555,-0.0545,-0.0514,-0.0473,-0.0461,-0.0452,-0.0435,-0.0417,-0.0427,-0.0432,-0.0421,-0.0383,-0.0386,-0.0387,-0.0361,-0.0361,-0.036,0,0,-0.0691,-0.0679,-0.0692,-0.0688,-0.0678,-0.0665,-0.0668,-0.0646,-0.0633,-0.0624,-0.0587,-0.0563,-0.0525,-0.0498,-0.0479,-0.0504,-0.0454,-0.0498,-0.0525,-0.0491,-0.0493,-0.0494,-0.0469,-0.0467,-0.05,-0.05,-0.05,0,-0.0704,-0.0716,-0.0694,-0.0708,-0.0711,-0.0679,-0.0697,-0.0682,-0.0656,-0.0646,-0.0629,-0.0575,-0.0541,-0.0522,-0.0532,-0.0517,-0.0492,-0.0501,-0.0499,-0.0499,-0.0499,-0.0473,-0.047,-0.0503,-0.0503,-0.0503,-0.0502,0,-0.0738,-0.0749,-0.0757,-0.0763,-0.0764,-0.0774,-0.0755,-0.0748,-0.0727,-0.0706,-0.0682,-0.0637,-0.0602,-0.0594,-0.0568,-0.0552,-0.0535,-0.0514,-0.048,-0.0505,-0.0477,-0.0473,-0.0509,-0.0507,-0.0506,-0.0505,0,0,-0.0767,-0.078,-0.0783,-0.0799,-0.0795,-0.0802,-0.0805,-0.0796,-0.0793,-0.0759,-0.0748,-0.0708,-0.0674,-0.065,-0.0615,-0.0584,-0.0567,-0.0551,-0.0548,-0.0528,-0.0497,-0.0485,-0.0478,-0.0545,-0.0544,-0.0544,-0.0485,0,-0.0802,-0.0843,-0.0836,-0.0874,-0.0896,-0.0872,-0.0879,-0.0864,-0.0837,-0.0816,-0.0761,-0.0736,-0.0699,-0.0683,-0.0648,-0.0583,-0.0555,-0.0584,-0.0474,-0.0471,-0.0457,-0.0472,-0.04,-0.0342,-0.048,-0.0479,-0.0479,0,-0.0842,-0.0865,-0.0911,-0.0935,-0.0942,-0.0956,-0.0956,-0.0956,-0.0912,-0.0889,-0.0846,-0.0796,-0.0746,-0.071,-0.0612,-0.0633,-0.0571,-0.052,-0.0516,-0.0471,-0.0449,-0.0335,-0.0327,-0.047,-0.0471,-0.0472,-0.0472,0,-0.0883,-0.0918,-0.0958,-0.0967,-0.0986,-0.0998,-0.1001,-0.0977,-0.0979,-0.0928,-0.0916,-0.0843,-0.0804,-0.0719,-0.061,-0.0611,-0.0495,-0.0484,-0.0415,-0.0414,-0.0313,-0.0304,-0.0413,-0.0413,-0.0413,-0.0413,-0.0414,0,-0.093,-0.0961,-0.098,-0.1005,-0.1051,-0.1042,-0.107,-0.1057,-0.1035,-0.1039,-0.0955,-0.0935,-0.0802,-0.0717,-0.0622,-0.0503,-0.0504,-0.0418,-0.0395,-0.0339,-0.0334,-0.0407,-0.0408,-0.0411,-0.0412,-0.0412,-0.0413,0,-0.0972,-0.0984,-0.1034,-0.1063,-0.1075,-0.1106,-0.1128,-0.1145,-0.111,-0.111,-0.1097,-0.0999,-0.0888,-0.0751,-0.0604,-0.0522,-0.0408,-0.0364,-0.0313,-0.0287,-0.035,-0.0355,-0.0293,-0.0292,-0.0291,-0.029,-0.0289,0,-0.0998,-0.1027,-0.1081,-0.1117,-0.1134,-0.1172,-0.1201,-0.1189,-0.1203,-0.1154,-0.116,-0.1046,-0.0973,-0.0746,-0.0534,-0.0355,-0.0385,-0.0224,-0.0216,-0.0352,-0.0336,-0.0343,-0.0348,-0.0112,-0.011,-0.0108,-0.0107,0,-0.1045,-0.1062,-0.1106,-0.1179,-0.1225,-0.1275,-0.1309,-0.1335,-0.1315,-0.13,-0.127,-0.1205,-0.0942,-0.0692,-0.043,-0.0317,-0.0247,-0.0188,-0.0317,-0.0167,-0.018,-0.0166,-0.0177,-0.0092,-0.0094,-0.0095,-0.0095,-0.0096,-0.1073,-0.1119,-0.1174,-0.1244,-0.1304,-0.137,-0.1417,-0.1388,-0.1405,-0.1317,-0.1309,-0.1125,-0.0906,-0.0471,-0.0289,-0.0088,-0.0142,-0.0086,-0.0091,-0.0098,-0.0101,-0.0113,-0.0014,-0.0015,-0.0015,-0.0016,-0.0017,0,-0.1078,-0.1158,-0.1232,-0.1323,-0.1367,-0.1413,-0.1485,-0.1434,-0.1399,-0.1273,-0.1178,-0.0897,-0.0618,-0.0388,-0.0042,0.0087,0.0112,0.0104,0.0116,0.0101,0.0087,0.0093,0.0233,0.0234,0.0235,0.0235,0,0,-0.1089,-0.1151,-0.1194,-0.1314,-0.1406,-0.1437,-0.148,-0.1379,-0.1252,-0.1082,-0.0931,-0.0763,-0.0556,-0.027,-0.0077,0.0096,0.0065,0.0127,-0.008,-0.0101,-0.0115,-0.0023,-0.0032,0,0,0,0,0]}],[{"header":{"parameterUnit":"m.s-1","parameterCategory":2,"la1":30.2991,"la2":30.254,"lo1":-89.0895,"lo2":-89.0444,"dy":0.0017,"dx":0.0017,"nx":28,"ny":28,"refTime":"2025-11-09T03:00:00:Z","depth":"4","parameterNumber":2,"parameterNumberName":"U-component_of_CURRENTS"},"data":[0,0,0,0,0,0,0,0,0,0,0,0,0,0,0,0,0,0,0,0,0,0,0,0,0,0,0,0,0,0,0,0,0,0,0,0,0,0,0,0,0,0,0,0,0,0,0,0,0,0,0,0,0,0,0,0,0,0,-0.1824,-0.1824,0,-0.1882,-0.1883,-0.1884,-0.1919,-0.1919,-0.1919,-0.192,-0.1995,-0.1996,-0.1998,0,0,0,0,0,0,0,0,0,0,0,0,0,-0.174,-0.1741,-0.1824,-0.1824,-0.1825,-0.1882,-0.1883,-0.1884,-0.1919,-0.1919,-0.1919,-0.192,-0.1994,-0.1996,-0.1998,0,0,0,0,0,0,0,0,0,0,0,0,0,-0.1784,-0.1741,-0.1823,-0.1851,-0.1854,-0.1882,-0.1883,-0.1884,-0.1919,-0.1919,-0.192,-0.192,-0.1994,-0.1996,-0.1999,-0.2006,0,0,-0.2007,-0.2008,0,0,0,0,0,0,0,0,-0.1781,-0.1787,-0.1846,-0.1849,-0.1852,-0.1895,-0.1881,-0.1926,-0.1919,-0.1893,-0.192,-0.192,-0.1963,-0.1968,-0.1977,-0.201,-0.2013,-0.2007,-0.2008,-0.201,-0.201,0,0,0,0,0,0,0,-0.1778,-0.1784,-0.1846,-0.1847,-0.1851,-0.1859,-0.1866,-0.189,-0.1924,-0.1895,-0.1898,-0.1906,-0.1965,-0.1974,-0.1979,-0.2014,-0.2007,-0.2009,-0.2011,-0.2012,-0.2135,-0.2137,0,0,0,0,0,0,-0.1773,-0.1782,-0.1844,-0.1847,-0.1819,-0.1861,-0.1868,-0.188,-0.1924,-0.1931,-0.1906,-0.1908,-0.1969,-0.1976,-0.1982,-0.2054,-0.201,-0.2012,-0.2013,-0.2134,-0.2136,-0.2138,0,0,0,0,0,0,-0.1771,-0.1778,-0.1841,-0.1817,-0.1825,-0.1862,-0.1875,-0.1881,-0.1917,-0.1932,-0.194,-0.194,-0.197,-0.1978,-0.2029,-0.2055,-0.2013,-0.2016,-0.2132,-0.2134,-0.2137,-0.2161,0,0,0,0,0,0,-0.1769,-0.1777,-0.1799,-0.1816,-0.1827,-0.1876,-0.1875,-0.1882,-0.1921,-0.1924,-0.1963,-0.1969,-0.1971,-0.2025,-0.2032,-0.2058,-0.2018,-0.2129,-0.2133,-0.2136,-0.2158,-0.2164,-0.2169,0,0,0,0,0,-0.1766,-0.1787,-0.1799,-0.1808,-0.185,-0.1877,-0.1884,-0.1909,-0.1922,-0.1943,-0.1973,-0.1969,-0.205,-0.2029,-0.2036,-0.2064,-0.2128,-0.2132,-0.2136,-0.2156,-0.2163,-0.2169,0,0,0,0,0,0,-0.1764,-0.1794,-0.1807,-0.1838,-0.1865,-0.1884,-0.1911,-0.1926,-0.1966,-0.1979,-0.199,-0.1999,-0.2053,-0.206,-0.2036,-0.2111,-0.2089,-0.2095,-0.2102,-0.2109,-0.2115,-0.2107,-0.202,0,0,0,0,0,-0.1772,-0.1799,-0.1824,-0.1853,-0.1869,-0.1896,-0.1916,-0.1934,-0.1963,-0.1982,-0.2009,-0.2042,-0.207,-0.2092,-0.2118,-0.2159,-0.2147,-0.2184,-0.219,-0.2194,-0.2195,-0.2206,-0.2211,-0.215,-0.215,-0.215,0,0,-0.1781,-0.1801,-0.1819,-0.1856,-0.188,-0.1906,-0.191,-0.195,-0.1978,-0.1984,-0.2044,-0.2066,-0.2087,-0.2132,-0.2157,-0.2144,-0.2203,-0.2199,-0.2202,-0.22,-0.221,-0.2216,-0.2221,-0.2153,-0.2152,-0.2152,0,0,-0.1797,-0.1831,-0.1853,-0.1878,-0.1919,-0.1935,-0.1953,-0.199,-0.2018,-0.207,-0.2081,-0.2119,-0.2171,-0.2184,-0.2197,-0.2253,-0.2233,-0.227,-0.2291,-0.2302,-0.2306,-0.231,-0.2285,-0.2286,-0.2271,-0.2271,-0.2271,0,-0.1809,-0.1837,-0.1865,-0.1891,-0.1916,-0.1951,-0.1978,-0.201,-0.2062,-0.2084,-0.2097,-0.2171,-0.2192,-0.2231,-0.2252,-0.2263,-0.2256,-0.2258,-0.2306,-0.231,-0.2313,-0.2287,-0.2288,-0.2273,-0.2273,-0.2273,-0.2272,0,-0.1827,-0.1864,-0.1883,-0.1926,-0.1957,-0.199,-0.203,-0.2073,-0.2112,-0.2135,-0.2196,-0.2225,-0.2262,-0.228,-0.2285,-0.2325,-0.2305,-0.2309,-0.2281,-0.232,-0.229,-0.2291,-0.2275,-0.2275,-0.2274,-0.2274,0,0,-0.181,-0.1882,-0.1891,-0.1917,-0.1979,-0.2001,-0.206,-0.2108,-0.214,-0.2199,-0.2234,-0.2293,-0.2306,-0.2322,-0.2335,-0.235,-0.2364,-0.2345,-0.2345,-0.2306,-0.2365,-0.2225,-0.2211,-0.2379,-0.2379,-0.238,-0.2327,0,-0.1817,-0.1865,-0.1903,-0.1957,-0.1983,-0.2038,-0.2082,-0.2135,-0.2181,-0.2225,-0.2264,-0.2304,-0.2322,-0.2341,-0.2363,-0.2367,-0.237,-0.2376,-0.2346,-0.2344,-0.2203,-0.2209,-0.2383,-0.2327,-0.2327,-0.2327,-0.2327,0,-0.1809,-0.1846,-0.1898,-0.1967,-0.1985,-0.2026,-0.2096,-0.2141,-0.2207,-0.2243,-0.2291,-0.2317,-0.2356,-0.2363,-0.2386,-0.2391,-0.2383,-0.238,-0.2378,-0.2238,-0.2205,-0.2287,-0.2328,-0.2328,-0.2328,-0.2328,-0.2328,0,-0.1759,-0.1837,-0.188,-0.1905,-0.1989,-0.2029,-0.2076,-0.2147,-0.2179,-0.2251,-0.2274,-0.2327,-0.2348,-0.2366,-0.2371,-0.2383,-0.2374,-0.2384,-0.2244,-0.2233,-0.2364,-0.2361,-0.2391,-0.2391,-0.2391,-0.2391,-0.2391,0,-0.1726,-0.1764,-0.1865,-0.1885,-0.1934,-0.2005,-0.2056,-0.2111,-0.2175,-0.2195,-0.2276,-0.2285,-0.2355,-0.236,-0.2364,-0.229,-0.2367,-0.2235,-0.2211,-0.2374,-0.2373,-0.2363,-0.236,-0.2389,-0.239,-0.239,-0.239,0,-0.1653,-0.1725,-0.1777,-0.1878,-0.191,-0.1944,-0.2034,-0.2054,-0.2137,-0.2163,-0.2184,-0.2254,-0.2256,-0.2292,-0.2303,-0.2252,-0.2215,-0.2171,-0.2317,-0.2304,-0.2065,-0.2065,-0.1996,-0.1991,-0.1987,-0.1983,-0.198,0,-0.1615,-0.1638,-0.1753,-0.1779,-0.1829,-0.1893,-0.1922,-0.202,-0.2034,-0.2121,-0.2108,-0.2149,-0.218,-0.2064,-0.2134,-0.2101,-0.2094,-0.2049,-0.2081,-0.2041,-0.2026,-0.2033,-0.2039,-0.1972,-0.1971,-0.197,-0.1969,0,-0.1537,-0.1596,-0.1638,-0.1691,-0.1736,-0.1775,-0.1827,-0.1822,-0.1915,-0.2011,-0.1972,-0.1963,-0.1955,-0.1959,-0.1939,-0.1929,-0.2067,-0.2002,-0.2012,-0.2041,-0.2012,-0.2002,-0.2013,-0.1953,-0.1955,-0.1957,-0.1958,0,-0.1478,-0.1488,-0.155,-0.1576,-0.1633,-0.1628,-0.1676,-0.168,-0.1709,-0.1808,-0.1789,-0.1845,-0.1921,-0.1867,-0.1856,-0.1824,-0.1813,-0.1765,-0.1788,-0.1806,-0.1773,-0.171,-0.1523,0,0,0,0,0,-0.141,-0.1401,-0.1422,-0.1445,-0.1494,-0.1522,-0.1593,-0.1641,-0.1734,-0.1655,-0.1715,-0.1701,-0.1677,-0.1714,-0.1643,-0.1787,-0.1829,-0.1699,-0.1788,-0.1865,-0.1884,-0.1866,0,0,0,0,0,0,-0.1362,-0.1385,-0.1379,-0.1324,-0.1312,-0.1345,-0.1385,-0.1451,-0.1417,-0.1522,-0.1514,-0.1601,-0.1603,-0.1687,-0.1608,-0.162,-0.1642,-0.1747,-0.1743,-0.1855,-0.1871,-0.1886,-0.1875,0,0,0,0,0]},{"header":{"parameterUnit":"m.s-1","parameterCategory":2,"la1":30.2991,"la2":30.254,"lo1":-89.0895,"lo2":-89.0444,"dy":0.0017,"dx":0.0017,"nx":28,"ny":28,"refTime":"2025-11-09T03:00:00:Z","depth":"4","parameterNumber":3,"parameterNumberName":"V-component_of_CURRENTS"},"data":[0,0,0,0,0,0,0,0,0,0,0,0,0,0,0,0,0,0,0,0,0,0,0,0,0,0,0,0,0,0,0,0,0,0,0,0,0,0,0,0,0,0,0,0,0,0,0,0,0,0,0,0,0,0,0,0,0,0,-0.0012,-0.0012,0,0.0017,0.0017,0.0017,0.0045,0.0045,0.0046,0.0046,0.0109,0.0111,0.0112,0,0,0,0,0,0,0,0,0,0,0,0,0,-0.001,-0.001,-0.0012,-0.0012,-0.0011,0.0016,0.0017,0.0017,0.0045,0.0045,0.0046,0.0046,0.0109,0.0111,0.0112,0,0,0,0,0,0,0,0,0,0,0,0,0,0.0002,-0.001,-0.0012,0.0005,0.0007,0.0016,0.0017,0.0018,0.0045,0.0045,0.0046,0.0046,0.0108,0.0111,0.0113,0.0117,0,0,0.0119,0.012,0,0,0,0,0,0,0,0,0.0001,0.0001,0.0002,0.0004,0.0006,0.0027,0.0041,0.0052,0.0045,0.0031,0.0046,0.0046,0.0084,0.0088,0.0093,0.012,0.0123,0.0119,0.0121,0.0122,0.0122,0,0,0,0,0,0,0,-0.0,0.0001,0.0,0.0003,0.0005,0.0023,0.0024,0.0043,0.0056,0.0033,0.0034,0.0036,0.0086,0.0091,0.0095,0.0124,0.0119,0.0121,0.0122,0.0123,0.0133,0.0132,0,0,0,0,0,0,-0.0007,-0.0,-0.0001,0.0001,0.0004,0.0022,0.0024,0.002,0.0055,0.0061,0.0036,0.0037,0.0087,0.0093,0.0098,0.0083,0.0122,0.0124,0.0125,0.0134,0.0132,0.0131,0,0,0,0,0,0,-0.0008,-0.0008,-0.0002,0.0001,0.0003,0.0021,0.0017,0.0021,0.0023,0.0057,0.0064,0.0034,0.0088,0.0095,0.0103,0.0086,0.0124,0.0126,0.0135,0.0133,0.0132,0.0067,0,0,0,0,0,0,-0.0008,-0.0008,-0.0014,-0.0,0.0002,-0.0005,0.0017,0.0021,0.0024,0.0026,0.0058,0.0064,0.0089,0.01,0.0105,0.009,0.0128,0.0136,0.0134,0.0132,0.007,0.0063,0.0057,0,0,0,0,0,-0.0008,-0.0019,-0.0015,-0.0015,-0.0007,-0.0005,-0.0003,0.0013,0.0023,0.0018,0.0037,0.0063,0.0092,0.0101,0.0108,0.0092,0.0137,0.0135,0.0133,0.0073,0.0065,0.0058,0,0,0,0,0,0,-0.0019,-0.0017,-0.0012,-0.0021,-0.0018,-0.0001,-0.0003,0.0007,0.0018,0.002,0.0054,0.0061,0.0061,0.0084,0.0093,0.0088,0.0117,0.0116,0.007,0.0062,0.0056,0.0047,0.013,0,0,0,0,0,-0.0026,-0.0035,-0.0028,-0.0036,-0.0036,-0.0021,-0.0019,-0.0011,0.0001,0.0007,0.0028,0.0047,0.0057,0.0065,0.008,0.008,0.0101,0.0073,0.0066,0.0061,0.0057,0.0072,0.0066,0.0124,0.0124,0.0124,0,0,-0.0032,-0.0032,-0.0036,-0.0039,-0.0033,-0.0045,-0.0019,-0.0022,-0.0033,0.0012,0.0005,0.0026,0.0051,0.0048,0.005,0.0066,0.0053,0.0058,0.0053,0.0052,0.0069,0.0063,0.0058,0.0122,0.0122,0.0123,0,0,-0.0051,-0.005,-0.0065,-0.0069,-0.0069,-0.0064,-0.0069,-0.0059,-0.0057,-0.006,-0.0035,-0.0026,-0.0006,0.0005,0.0014,-0.0019,0.0018,-0.0015,-0.0053,-0.004,-0.0044,-0.0048,-0.0038,-0.004,-0.0018,-0.0019,-0.0019,0,-0.0058,-0.008,-0.0069,-0.0087,-0.0097,-0.0077,-0.01,-0.0097,-0.0087,-0.0089,-0.0072,-0.0054,-0.0029,-0.0037,-0.0048,-0.0034,-0.002,-0.0025,-0.0048,-0.0051,-0.0054,-0.0042,-0.0044,-0.0022,-0.0022,-0.0021,-0.0021,0,-0.0091,-0.011,-0.012,-0.0141,-0.0149,-0.0165,-0.0163,-0.0169,-0.0162,-0.0154,-0.0157,-0.0127,-0.0115,-0.0109,-0.0086,-0.0098,-0.0081,-0.0058,-0.0028,-0.0063,-0.0049,-0.005,-0.0027,-0.0026,-0.0025,-0.0024,0,0,-0.0101,-0.0138,-0.0142,-0.0168,-0.0181,-0.0195,-0.0217,-0.0231,-0.0247,-0.0231,-0.0247,-0.0227,-0.0203,-0.0191,-0.0163,-0.015,-0.0155,-0.0115,-0.0113,-0.0105,-0.0129,-0.0091,-0.0088,-0.0134,-0.0135,-0.0135,-0.0115,0,-0.0131,-0.0181,-0.0191,-0.0242,-0.0269,-0.027,-0.0295,-0.0304,-0.0299,-0.0307,-0.0277,-0.0277,-0.0237,-0.0232,-0.0215,-0.0169,-0.0158,-0.0163,-0.0095,-0.0094,-0.0055,-0.0088,-0.0136,-0.0115,-0.0115,-0.0115,-0.0115,0,-0.0159,-0.0193,-0.0249,-0.0304,-0.0316,-0.0344,-0.0382,-0.0399,-0.04,-0.0394,-0.0383,-0.0352,-0.0336,-0.0293,-0.024,-0.0244,-0.0195,-0.0156,-0.0154,-0.0095,-0.0057,-0.0069,-0.0115,-0.0115,-0.0115,-0.0115,-0.0115,0,-0.0174,-0.0235,-0.0285,-0.0303,-0.0356,-0.0387,-0.0411,-0.0426,-0.0447,-0.0445,-0.0451,-0.0422,-0.0406,-0.0348,-0.0258,-0.0254,-0.019,-0.0172,-0.0096,-0.0093,-0.0102,-0.0098,-0.0137,-0.0137,-0.0137,-0.0137,-0.0137,0,-0.02,-0.0241,-0.0301,-0.0329,-0.0398,-0.0418,-0.0476,-0.0491,-0.051,-0.0534,-0.0495,-0.0497,-0.0417,-0.0363,-0.0284,-0.0188,-0.0209,-0.0109,-0.0086,-0.0131,-0.0131,-0.0103,-0.0099,-0.0136,-0.0137,-0.0137,-0.0137,0,-0.0204,-0.0242,-0.0306,-0.0377,-0.0407,-0.0452,-0.0523,-0.0557,-0.0566,-0.0595,-0.0597,-0.0559,-0.0489,-0.0397,-0.0297,-0.0221,-0.0133,-0.009,-0.0151,-0.013,-0.0044,-0.0044,-0.0025,-0.0023,-0.0022,-0.0021,-0.002,0,-0.0209,-0.0241,-0.0338,-0.0385,-0.0423,-0.0493,-0.0543,-0.0582,-0.0612,-0.0627,-0.0639,-0.0587,-0.0544,-0.0384,-0.0281,-0.0136,-0.0102,-0.0059,-0.0051,-0.0054,-0.0033,-0.0035,-0.0037,-0.0018,-0.0018,-0.0018,-0.0017,0,-0.0216,-0.025,-0.0304,-0.0399,-0.047,-0.0547,-0.0615,-0.0644,-0.0678,-0.0691,-0.0667,-0.0586,-0.0502,-0.0379,-0.0257,-0.0151,-0.0092,-0.0046,-0.0048,-0.004,-0.0045,-0.0027,-0.003,-0.0013,-0.0014,-0.0014,-0.0014,0,-0.0216,-0.0255,-0.0326,-0.0408,-0.0498,-0.0574,-0.0617,-0.0656,-0.0687,-0.0699,-0.0689,-0.0598,-0.0553,-0.0385,-0.0276,-0.0164,-0.0137,-0.0096,-0.0095,-0.0098,-0.0113,-0.013,-0.0112,0,0,0,0,0,-0.0213,-0.0256,-0.0332,-0.0426,-0.0511,-0.0563,-0.0652,-0.0684,-0.0721,-0.0706,-0.0697,-0.0614,-0.0453,-0.0388,-0.0272,-0.0249,-0.0116,-0.0107,-0.0067,0.0011,0.0006,0.0006,0,0,0,0,0,0,-0.0215,-0.0278,-0.0321,-0.0415,-0.0477,-0.0572,-0.0632,-0.0663,-0.0654,-0.0671,-0.0591,-0.056,-0.0409,-0.0508,-0.0257,-0.0226,-0.018,-0.0039,-0.0036,0.0013,0.0009,0.0005,0.0004,0,0,0,0,0]}]]